Time,TemperatureF,DewpointF,PressureIn,WindDirection,WindDirectionDegrees,WindSpeedMPH,WindSpeedGustMPH,Humidity,HourlyPrecipIn,Conditions,Clouds,dailyrainin,SoftwareType,DateUTC
2013-05-25 00:02:00,53.0,48.0,30.18,West,264,0.0,0.0,82,0.00,,,0.00,,2013-05-25 04:02:00,
2013-05-25 00:13:00,53.0,48.0,30.18,West,264,0.0,0.0,82,0.00,,,0.00,,2013-05-25 04:13:00,
2013-05-25 00:23:00,53.0,48.0,30.19,West,264,0.0,0.0,84,0.00,,,0.00,,2013-05-25 04:23:00,
2013-05-25 00:33:00,52.0,48.0,30.19,West,264,0.0,1.0,85,0.00,,,0.00,,2013-05-25 04:33:00,
2013-05-25 00:43:00,52.0,48.0,30.19,West,264,0.0,1.0,85,0.00,,,0.00,,2013-05-25 04:43:00,
2013-05-25 00:53:00,52.0,48.0,30.19,West,264,0.0,1.0,86,0.00,,,0.00,,2013-05-25 04:53:00,
2013-05-25 01:02:00,51.0,48.0,30.19,West,264,0.0,0.0,88,0.00,,,0.00,,2013-05-25 05:02:00,
2013-05-25 01:12:00,51.0,48.0,30.19,West,264,0.0,0.0,88,0.00,,,0.00,,2013-05-25 05:12:00,
2013-05-25 01:22:00,51.0,48.0,30.19,West,264,0.0,0.0,89,0.00,,,0.00,,2013-05-25 05:22:00,
2013-05-25 01:32:00,50.0,47.0,30.19,West,264,0.0,1.0,89,0.00,,,0.00,,2013-05-25 05:32:00,
2013-05-25 01:43:00,50.0,47.0,30.19,West,264,0.0,1.0,89,0.00,,,0.00,,2013-05-25 05:43:00,
2013-05-25 01:52:00,50.0,47.0,30.19,West,264,0.0,1.0,90,0.00,,,0.00,,2013-05-25 05:52:00,
2013-05-25 02:02:00,50.0,47.0,30.20,West,264,0.0,1.0,90,0.00,,,0.00,,2013-05-25 06:02:00,
2013-05-25 02:12:00,49.0,46.0,30.20,West,264,0.0,1.0,91,0.00,,,0.00,,2013-05-25 06:12:00,
2013-05-25 02:21:00,49.0,46.0,30.20,West,264,0.0,1.0,91,0.00,,,0.00,,2013-05-25 06:21:00,
2013-05-25 02:32:00,49.0,46.0,30.21,West,264,0.0,1.0,91,0.00,,,0.00,,2013-05-25 06:32:00,
2013-05-25 02:42:00,49.0,46.0,30.21,West,264,0.0,1.0,91,0.00,,,0.00,,2013-05-25 06:42:00,
2013-05-25 02:52:00,48.0,45.0,30.20,West,264,0.0,1.0,91,0.00,,,0.00,,2013-05-25 06:52:00,
2013-05-25 03:01:00,48.0,45.0,30.20,West,264,0.0,1.0,91,0.00,,,0.00,,2013-05-25 07:01:00,
2013-05-25 03:11:00,48.0,45.0,30.20,West,264,0.0,1.0,91,0.00,,,0.00,,2013-05-25 07:11:00,
2013-05-25 03:22:00,48.0,46.0,30.20,West,264,0.0,1.0,92,0.00,,,0.00,,2013-05-25 07:22:00,
2013-05-25 03:32:00,47.0,45.0,30.20,West,264,0.0,1.0,92,0.00,,,0.00,,2013-05-25 07:32:00,
2013-05-25 03:42:00,47.0,45.0,30.20,West,264,0.0,1.0,92,0.00,,,0.00,,2013-05-25 07:42:00,
2013-05-25 03:52:00,47.0,45.0,30.21,West,264,0.0,1.0,93,0.00,,,0.00,,2013-05-25 07:52:00,
2013-05-25 04:02:00,47.0,45.0,30.21,West,264,0.0,1.0,93,0.00,,,0.00,,2013-05-25 08:02:00,
2013-05-25 04:11:00,47.0,45.0,30.21,West,264,0.0,1.0,93,0.00,,,0.00,,2013-05-25 08:11:00,
2013-05-25 04:22:00,46.0,44.0,30.21,West,264,0.0,1.0,93,0.00,,,0.00,,2013-05-25 08:22:00,
2013-05-25 04:32:00,46.0,44.0,30.22,West,264,0.0,0.0,93,0.00,,,0.00,,2013-05-25 08:32:00,
2013-05-25 04:42:00,46.0,44.0,30.22,West,264,0.0,0.0,93,0.00,,,0.00,,2013-05-25 08:42:00,
2013-05-25 04:52:00,46.0,44.0,30.22,West,264,0.0,0.0,94,0.00,,,0.00,,2013-05-25 08:52:00,
2013-05-25 05:02:00,45.0,43.0,30.22,West,264,0.0,0.0,94,0.00,,,0.00,,2013-05-25 09:02:00,
2013-05-25 05:11:00,45.0,43.0,30.22,West,264,0.0,0.0,94,0.00,,,0.00,,2013-05-25 09:11:00,
2013-05-25 05:21:00,45.0,43.0,30.23,West,264,0.0,0.0,94,0.00,,,0.00,,2013-05-25 09:21:00,
2013-05-25 05:33:00,45.0,43.0,30.24,West,264,0.0,0.0,94,0.00,,,0.00,,2013-05-25 09:33:00,
2013-05-25 05:43:00,45.0,43.0,30.24,West,264,0.0,0.0,94,0.00,,,0.00,,2013-05-25 09:43:00,
2013-05-25 05:53:00,45.0,43.0,30.25,West,264,0.0,0.0,94,0.00,,,0.00,,2013-05-25 09:53:00,
2013-05-25 06:03:00,45.0,44.0,30.25,West,264,0.0,0.0,95,0.00,,,0.00,,2013-05-25 10:03:00,
2013-05-25 06:12:00,45.0,44.0,30.25,West,264,0.0,0.0,95,0.00,,,0.00,,2013-05-25 10:12:00,
2013-05-25 06:23:00,44.0,43.0,30.26,West,264,0.0,0.0,95,0.00,,,0.00,,2013-05-25 10:23:00,
2013-05-25 06:33:00,44.0,42.0,30.27,West,264,0.0,0.0,94,0.00,,,0.00,,2013-05-25 10:33:00,
2013-05-25 06:42:00,44.0,42.0,30.27,West,264,0.0,0.0,94,0.00,,,0.00,,2013-05-25 10:42:00,
2013-05-25 06:52:00,44.0,43.0,30.27,West,264,0.0,0.0,95,0.00,,,0.00,,2013-05-25 10:52:00,
2013-05-25 07:02:00,44.0,43.0,30.27,West,264,0.0,0.0,95,0.00,,,0.00,,2013-05-25 11:02:00,
2013-05-25 07:12:00,44.0,43.0,30.27,West,264,0.0,0.0,95,0.00,,,0.00,,2013-05-25 11:12:00,
2013-05-25 07:22:00,44.0,43.0,30.28,West,264,0.0,0.0,95,0.00,,,0.00,,2013-05-25 11:22:00,
2013-05-25 07:32:00,45.0,44.0,30.28,West,264,0.0,0.0,95,0.00,,,0.00,,2013-05-25 11:32:00,
2013-05-25 07:42:00,45.0,44.0,30.28,West,264,0.0,0.0,95,0.00,,,0.00,,2013-05-25 11:42:00,
2013-05-25 07:52:00,46.0,45.0,30.29,West,264,0.0,0.0,96,0.00,,,0.00,,2013-05-25 11:52:00,
2013-05-25 08:01:00,47.0,46.0,30.30,West,264,0.0,0.0,96,0.00,,,0.00,,2013-05-25 12:01:00,
2013-05-25 08:12:00,47.0,46.0,30.30,West,264,0.0,0.0,96,0.00,,,0.00,,2013-05-25 12:12:00,
2013-05-25 08:22:00,50.0,49.0,30.31,West,264,0.0,0.0,95,0.00,,,0.00,,2013-05-25 12:22:00,
2013-05-25 08:32:00,55.0,52.0,30.31,West,264,0.0,0.0,90,0.00,,,0.00,,2013-05-25 12:32:00,
2013-05-25 08:42:00,55.0,52.0,30.31,West,264,0.0,0.0,90,0.00,,,0.00,,2013-05-25 12:42:00,
2013-05-25 08:52:00,59.0,48.0,30.31,NE,35,2.0,4.0,68,0.00,,,0.00,,2013-05-25 12:52:00,
2013-05-25 09:02:00,61.0,47.0,30.32,ENE,75,2.0,6.0,60,0.00,,,0.00,,2013-05-25 13:02:00,
2013-05-25 09:11:00,61.0,47.0,30.32,ENE,75,2.0,6.0,60,0.00,,,0.00,,2013-05-25 13:11:00,
2013-05-25 09:22:00,63.0,47.0,30.33,ESE,114,3.0,7.0,55,0.00,,,0.00,,2013-05-25 13:22:00,
2013-05-25 09:32:00,64.0,47.0,30.33,NNE,13,2.0,4.0,54,0.00,,,0.00,,2013-05-25 13:32:00,
2013-05-25 09:42:00,64.0,47.0,30.33,NNE,13,2.0,4.0,54,0.00,,,0.00,,2013-05-25 13:42:00,
2013-05-25 09:52:00,65.0,47.0,30.33,NE,54,1.0,6.0,52,0.00,,,0.00,,2013-05-25 13:52:00,
2013-05-25 10:02:00,66.0,48.0,30.33,NW,321,2.0,4.0,52,0.00,,,0.00,,2013-05-25 14:02:00,
2013-05-25 10:11:00,66.0,48.0,30.33,NW,321,2.0,4.0,52,0.00,,,0.00,,2013-05-25 14:11:00,
2013-05-25 10:22:00,66.0,46.0,30.34,ENE,74,1.0,6.0,49,0.00,,,0.00,,2013-05-25 14:22:00,
2013-05-25 10:32:00,67.0,46.0,30.33,ENE,68,4.0,8.0,47,0.00,,,0.00,,2013-05-25 14:32:00,
2013-05-25 10:42:00,67.0,46.0,30.33,ENE,68,4.0,8.0,47,0.00,,,0.00,,2013-05-25 14:42:00,
2013-05-25 10:52:00,68.0,45.0,30.33,West,264,3.0,6.0,43,0.00,,,0.00,,2013-05-25 14:52:00,
2013-05-25 11:01:00,68.0,45.0,30.32,North,351,2.0,5.0,43,0.00,,,0.00,,2013-05-25 15:01:00,
2013-05-25 11:11:00,68.0,45.0,30.32,North,351,2.0,5.0,43,0.00,,,0.00,,2013-05-25 15:11:00,
2013-05-25 11:22:00,69.0,46.0,30.32,ENE,77,2.0,7.0,44,0.00,,,0.00,,2013-05-25 15:22:00,
2013-05-25 11:33:00,70.0,45.0,30.32,ENE,69,3.0,6.0,40,0.00,,,0.00,,2013-05-25 15:33:00,
2013-05-25 11:43:00,70.0,45.0,30.32,ENE,69,3.0,6.0,40,0.00,,,0.00,,2013-05-25 15:43:00,
2013-05-25 11:53:00,70.0,45.0,30.31,NW,308,1.0,5.0,41,0.00,,,0.00,,2013-05-25 15:53:00,
2013-05-25 12:03:00,71.0,42.0,30.31,SW,222,4.0,6.0,35,0.00,,,0.00,,2013-05-25 16:03:00,
2013-05-25 12:12:00,71.0,42.0,30.31,SW,222,4.0,6.0,35,0.00,,,0.00,,2013-05-25 16:12:00,
2013-05-25 12:23:00,72.0,43.0,30.30,NNE,16,1.0,5.0,35,0.00,,,0.00,,2013-05-25 16:23:00,
2013-05-25 12:32:00,73.0,47.0,30.30,NW,305,1.0,5.0,39,0.00,,,0.00,,2013-05-25 16:32:00,
2013-05-25 12:42:00,73.0,47.0,30.30,NW,305,1.0,5.0,39,0.00,,,0.00,,2013-05-25 16:42:00,
2013-05-25 12:52:00,73.0,41.0,30.29,East,84,1.0,3.0,32,0.00,,,0.00,,2013-05-25 16:52:00,
2013-05-25 13:03:00,75.0,43.0,30.29,ESE,113,1.0,4.0,32,0.00,,,0.00,,2013-05-25 17:03:00,
2013-05-25 13:11:00,75.0,43.0,30.29,ESE,113,1.0,4.0,32,0.00,,,0.00,,2013-05-25 17:11:00,
2013-05-25 13:22:00,76.0,43.0,30.29,NNW,343,1.0,5.0,31,0.00,,,0.00,,2013-05-25 17:22:00,
2013-05-25 13:32:00,74.0,44.0,30.28,NW,319,2.0,4.0,34,0.00,,,0.00,,2013-05-25 17:32:00,
2013-05-25 13:42:00,74.0,44.0,30.28,NW,319,2.0,4.0,34,0.00,,,0.00,,2013-05-25 17:42:00,
2013-05-25 13:52:00,75.0,40.0,30.28,ENE,68,2.0,3.0,28,0.00,,,0.00,,2013-05-25 17:52:00,
2013-05-25 14:02:00,75.0,41.0,30.27,East,95,1.0,4.0,30,0.00,,,0.00,,2013-05-25 18:02:00,
2013-05-25 14:11:00,75.0,41.0,30.27,East,95,1.0,4.0,30,0.00,,,0.00,,2013-05-25 18:11:00,
2013-05-25 14:21:00,77.0,43.0,30.27,SW,226,1.0,5.0,30,0.00,,,0.00,,2013-05-25 18:21:00,
2013-05-25 14:32:00,78.0,44.0,30.25,South,177,1.0,4.0,30,0.00,,,0.00,,2013-05-25 18:32:00,
2013-05-25 14:42:00,78.0,44.0,30.25,South,177,1.0,4.0,30,0.00,,,0.00,,2013-05-25 18:42:00,
2013-05-25 14:52:00,77.0,39.0,30.23,SSW,210,2.0,5.0,26,0.00,,,0.00,,2013-05-25 18:52:00,
2013-05-25 15:01:00,79.0,42.0,30.22,ENE,73,2.0,3.0,27,0.00,,,0.00,,2013-05-25 19:01:00,
2013-05-25 15:11:00,79.0,42.0,30.22,ENE,73,2.0,3.0,27,0.00,,,0.00,,2013-05-25 19:11:00,
2013-05-25 15:22:00,79.0,43.0,30.22,West,263,2.0,4.0,28,0.00,,,0.00,,2013-05-25 19:22:00,
2013-05-25 15:32:00,79.0,43.0,30.21,WNW,282,0.0,4.0,28,0.00,,,0.00,,2013-05-25 19:32:00,
2013-05-25 15:42:00,79.0,43.0,30.21,WNW,282,0.0,4.0,28,0.00,,,0.00,,2013-05-25 19:42:00,
2013-05-25 15:52:00,80.0,44.0,30.20,SE,146,1.0,2.0,28,0.00,,,0.00,,2013-05-25 19:52:00,
2013-05-25 16:02:00,80.0,47.0,30.21,SW,222,1.0,5.0,31,0.00,,,0.00,,2013-05-25 20:02:00,
2013-05-25 16:11:00,80.0,47.0,30.21,SW,222,1.0,5.0,31,0.00,,,0.00,,2013-05-25 20:11:00,
2013-05-25 16:22:00,80.0,45.0,30.20,SSW,210,2.0,4.0,29,0.00,,,0.00,,2013-05-25 20:22:00,
2013-05-25 16:32:00,80.0,44.0,30.19,WSW,253,2.0,4.0,28,0.00,,,0.00,,2013-05-25 20:32:00,
2013-05-25 16:42:00,80.0,44.0,30.19,WSW,253,2.0,4.0,28,0.00,,,0.00,,2013-05-25 20:42:00,
2013-05-25 16:52:00,81.0,44.0,30.19,SW,219,1.0,4.0,27,0.00,,,0.00,,2013-05-25 20:52:00,
2013-05-25 17:02:00,81.0,44.0,30.19,NNE,16,1.0,4.0,27,0.00,,,0.00,,2013-05-25 21:02:00,
2013-05-25 17:11:00,81.0,44.0,30.19,NNE,16,1.0,4.0,27,0.00,,,0.00,,2013-05-25 21:11:00,
2013-05-25 17:21:00,81.0,44.0,30.19,SSW,199,2.0,6.0,27,0.00,,,0.00,,2013-05-25 21:21:00,
2013-05-25 17:33:00,81.0,45.0,30.18,West,262,1.0,4.0,28,0.00,,,0.00,,2013-05-25 21:33:00,
2013-05-25 17:43:00,81.0,45.0,30.18,West,262,1.0,4.0,28,0.00,,,0.00,,2013-05-25 21:43:00,
2013-05-25 17:53:00,82.0,46.0,30.18,WNW,285,1.0,6.0,28,0.00,,,0.00,,2013-05-25 21:53:00,
2013-05-25 18:03:00,81.0,42.0,30.17,NE,43,0.0,3.0,25,0.00,,,0.00,,2013-05-25 22:03:00,
2013-05-25 18:13:00,81.0,42.0,30.17,NE,43,0.0,3.0,25,0.00,,,0.00,,2013-05-25 22:13:00,
2013-05-25 18:23:00,81.0,50.0,30.17,SW,221,0.0,4.0,34,0.00,,,0.00,,2013-05-25 22:23:00,
2013-05-25 18:32:00,81.0,43.0,30.17,SW,222,0.0,1.0,26,0.00,,,0.00,,2013-05-25 22:32:00,
2013-05-25 18:42:00,81.0,43.0,30.17,SW,222,0.0,1.0,26,0.00,,,0.00,,2013-05-25 22:42:00,
2013-05-25 18:52:00,80.0,49.0,30.17,SW,229,0.0,1.0,34,0.00,,,0.00,,2013-05-25 22:52:00,
2013-05-25 19:02:00,76.0,48.0,30.17,SW,231,0.0,1.0,37,0.00,,,0.00,,2013-05-25 23:02:00,
2013-05-25 19:12:00,76.0,48.0,30.17,SW,231,0.0,1.0,37,0.00,,,0.00,,2013-05-25 23:12:00,
2013-05-25 19:22:00,74.0,49.0,30.17,SW,229,0.0,1.0,42,0.00,,,0.00,,2013-05-25 23:22:00,
2013-05-25 19:32:00,72.0,52.0,30.17,SW,229,0.0,1.0,49,0.00,,,0.00,,2013-05-25 23:32:00,
2013-05-25 19:42:00,72.0,52.0,30.17,SW,229,0.0,1.0,49,0.00,,,0.00,,2013-05-25 23:42:00,
2013-05-25 19:52:00,71.0,53.0,30.17,SW,229,0.0,1.0,53,0.00,,,0.00,,2013-05-25 23:52:00,
2013-05-25 20:02:00,70.0,53.0,30.18,SW,229,0.0,1.0,55,0.00,,,0.00,,2013-05-26 00:02:00,
2013-05-25 20:11:00,70.0,53.0,30.18,SW,229,0.0,1.0,55,0.00,,,0.00,,2013-05-26 00:11:00,
2013-05-25 20:22:00,68.0,55.0,30.18,SW,229,0.0,0.0,63,0.00,,,0.00,,2013-05-26 00:22:00,
2013-05-25 20:32:00,66.0,53.0,30.18,SW,229,0.0,0.0,62,0.00,,,0.00,,2013-05-26 00:32:00,
2013-05-25 20:42:00,66.0,53.0,30.18,SW,229,0.0,0.0,62,0.00,,,0.00,,2013-05-26 00:42:00,
2013-05-25 20:53:00,65.0,54.0,30.17,SW,229,0.0,1.0,68,0.00,,,0.00,,2013-05-26 00:53:00,
2013-05-25 21:01:00,63.0,52.0,30.18,SW,229,0.0,1.0,67,0.00,,,0.00,,2013-05-26 01:01:00,
2013-05-25 21:11:00,63.0,52.0,30.18,SW,229,0.0,1.0,67,0.00,,,0.00,,2013-05-26 01:11:00,
2013-05-25 21:21:00,62.0,54.0,30.18,SW,229,0.0,1.0,74,0.00,,,0.00,,2013-05-26 01:21:00,
2013-05-25 21:32:00,61.0,53.0,30.18,SW,229,0.0,1.0,76,0.00,,,0.00,,2013-05-26 01:32:00,
2013-05-25 21:42:00,61.0,53.0,30.18,SW,229,0.0,1.0,76,0.00,,,0.00,,2013-05-26 01:42:00,
2013-05-25 21:53:00,60.0,53.0,30.19,SW,229,0.0,0.0,78,0.00,,,0.00,,2013-05-26 01:53:00,
2013-05-25 22:02:00,59.0,53.0,30.19,SW,229,0.0,0.0,81,0.00,,,0.00,,2013-05-26 02:02:00,
2013-05-25 22:11:00,59.0,53.0,30.19,SW,229,0.0,0.0,81,0.00,,,0.00,,2013-05-26 02:11:00,
2013-05-25 22:21:00,58.0,53.0,30.20,SW,229,0.0,1.0,83,0.00,,,0.00,,2013-05-26 02:21:00,
2013-05-25 22:32:00,58.0,53.0,30.20,SW,229,0.0,1.0,84,0.00,,,0.00,,2013-05-26 02:32:00,
2013-05-25 22:42:00,58.0,53.0,30.20,SW,229,0.0,1.0,84,0.00,,,0.00,,2013-05-26 02:42:00,
2013-05-25 22:52:00,57.0,52.0,30.20,SW,229,0.0,0.0,84,0.00,,,0.00,,2013-05-26 02:52:00,
2013-05-25 23:01:00,56.0,52.0,30.20,SW,229,0.0,0.0,86,0.00,,,0.00,,2013-05-26 03:01:00,
2013-05-25 23:11:00,56.0,52.0,30.20,SW,229,0.0,0.0,86,0.00,,,0.00,,2013-05-26 03:11:00,
2013-05-25 23:22:00,56.0,52.0,30.21,SW,229,0.0,1.0,87,0.00,,,0.00,,2013-05-26 03:22:00,
2013-05-25 23:33:00,55.0,52.0,30.20,SW,229,0.0,1.0,88,0.00,,,0.00,,2013-05-26 03:33:00,
2013-05-25 23:43:00,55.0,52.0,30.20,SW,229,0.0,1.0,88,0.00,,,0.00,,2013-05-26 03:43:00,
2013-05-25 23:53:00,55.0,52.0,30.19,SW,229,0.0,1.0,89,0.00,,,0.00,,2013-05-26 03:53:00,